Location: Brachstadt
(48.6975°N, 10.6755°E)
Time: 05:39:55
(UTC+00:00)

Okean-O - Pass Details

Date: 18 September 2020
Orbit: 638 x 641 km, 98.2° (Epoch: 29 October)

Event Time Altitude Azimuth Distance (km) Brightness Sun altitude
Rises 18:06:14 0° 181° (S) 2,934 5.9 -7.9°
Reaches altitude 10° 18:08:31 10° 188° (S) 2,029 5.2 -8.3°
Maximum altitude 18:12:44 44° 261° (W) 890 4.0 -9.0°
Drops below altitude 10° 18:17:01 10° 334° (NNW) 2,046 5.8 -9.6°
Sets 18:19:19 0° 341° (NNW) 2,960 6.5 -10.0°
